ONEWEB-0124 (47270 NORAD) Tracking and Keplerian Element Data

This shows tracking and keplerian element data for the satellite.

Feedback or suggestion? Click here.




ElementValue
Catalog47270
NameONEWEB-0124
Epoch Orbit174
Epoch Day60.91667824
Epoch Year2021
RAAN16.0554
Inclination87.5017
Eccentricity0.0010776
Argument of Perigee24.5043
Mean Anonmoly287.5582
Mean Motion13.88668101
Decay Rate1.6E-07
L11 47270U 20100N 21060.91667824 .00000016 00000-0 00000-0 0 9992
L22 47270 87.5017 16.0554 0010776 24.5043 287.5582 13.88668101 1741

Live tracking and technical data element details for ONEWEB-0124 (NORAD 47270). ONEWEB-0124 can be tracked NOW for your location showing map with azimuth and elevation plus other details from your city location.

Track the satellite on the map from your city or location and see movement details for azimuth, elevation, latitude, longitude, range, height, and movement on the map or in text.







IsCatalogInMostPopularTable: catalog: 47270, numindb: 23
Update: records affected: 1



GetName: 47270 ONEWEB-0124

Hit Count: updated at: Tue, 02 Mar 2021 14:21:02 GMT